[[{"header":{"parameterUnit":"m.s-1","parameterCategory":1,"la1":30.2992,"la2":30.254,"lo1":-89.0895,"lo2":-89.0443,"dy":0.0025,"dx":0.0025,"nx":19,"ny":19,"refTime":"2026-03-10T09:00:00:Z","depth":0,"parameterNumber":2,"parameterNumberName":"U-component_of_WINDS"},"data":[0,0,0,-0.7247,-0.7248,-0.7264,-0.7264,-0.7285,-0.7285,0,0,0,0,0,0,0,0,0,0,0,-0.7242,-0.7242,-0.7247,-0.7248,-0.7264,-0.7264,-0.7285,-0.7285,0,0,0,0,0,0,0,0,0,0,0,-0.7242,-0.7242,-0.7242,-0.7248,-0.7264,-0.7264,-0.7285,-0.7272,0,0,0,0,0,0,0,0,0,0,-0.7257,-0.7252,-0.7242,-0.7242,-0.7248,-0.7264,-0.7264,-0.7272,-0.7273,-0.7277,0,-0.728,0,-0.7283,-0.7286,-0.7286,0,0,0,-0.7248,-0.725,-0.7255,-0.7242,-0.7248,-0.7264,-0.7257,-0.7273,-0.7274,-0.7279,-0.7281,-0.7282,-0.7283,-0.7286,-0.7286,-0.7307,-0.7307,0,0,-0.7247,-0.7245,-0.7254,-0.7256,-0.7253,-0.7256,-0.7257,-0.7274,-0.7275,-0.7281,-0.7282,-0.7284,-0.7286,-0.7287,-0.7307,-0.7307,0,0,0,-0.7244,-0.7244,-0.7249,-0.7255,-0.7258,-0.7257,-0.7258,-0.7275,-0.7276,-0.7282,-0.7284,-0.7287,-0.7287,-0.7307,-0.7307,-0.7309,0,0,0,-0.7244,-0.7243,-0.7248,-0.7247,-0.7258,-0.7267,-0.7259,-0.7275,-0.7277,-0.7284,-0.7287,-0.7287,-0.7307,-0.7307,-0.7309,-0.731,0,0,0,-0.7241,-0.7242,-0.7245,-0.7247,-0.7254,-0.7266,-0.7269,-0.7276,-0.7278,-0.7286,-0.7287,-0.7307,-0.7307,-0.7309,-0.731,-0.7315,0,0,0,-0.7238,-0.7247,-0.7245,-0.7255,-0.7254,-0.7267,-0.7269,-0.7279,-0.7286,-0.7287,-0.7307,-0.7307,-0.7308,-0.731,-0.7314,-0.7318,-0.7319,0,0,-0.7248,-0.7248,-0.7254,-0.7253,-0.7266,-0.7265,-0.7279,-0.7288,-0.729,-0.7302,-0.7302,-0.7309,-0.731,-0.7314,-0.7329,-0.733,0,0,0,-0.7256,-0.726,-0.7264,-0.7271,-0.7278,-0.7283,-0.729,-0.7293,-0.7303,-0.7296,-0.7312,-0.7313,-0.7316,-0.7317,-0.7318,-0.7321,-0.7308,-0.7308,-0.7308,-0.7267,-0.7269,-0.7279,-0.7284,-0.729,-0.7297,-0.7303,-0.7308,-0.731,-0.7313,-0.7317,-0.7325,-0.7327,-0.7327,-0.733,-0.7319,-0.7319,-0.7319,-0.7319,-0.7281,-0.7287,-0.7288,-0.7298,-0.7301,-0.7309,-0.7316,-0.7317,-0.7325,-0.7323,-0.7325,-0.7322,-0.7328,-0.7331,-0.7319,-0.7319,-0.7319,-0.7319,-0.7319,-0.7288,-0.7291,-0.7294,-0.7304,-0.7311,-0.7315,-0.7323,-0.7325,-0.7328,-0.7331,-0.7334,-0.7334,-0.7334,-0.7332,-0.7332,-0.7332,-0.7332,-0.7332,-0.7332,-0.7293,-0.7297,-0.7303,-0.731,-0.7314,-0.732,-0.7327,-0.7331,-0.7337,-0.7338,-0.7338,-0.7339,-0.7329,-0.7326,-0.7333,-0.7333,-0.7333,-0.7333,-0.7332,-0.7306,-0.7303,-0.7312,-0.7316,-0.7325,-0.7331,-0.7334,-0.7343,-0.7347,-0.735,-0.7351,-0.7343,-0.7343,-0.7342,-0.734,-0.735,-0.735,-0.735,-0.735,-0.7311,-0.7312,-0.7321,-0.7327,-0.7334,-0.7337,-0.7348,-0.7353,-0.7358,-0.736,-0.7359,-0.7356,-0.7356,-0.7356,-0.7355,-0.7353,-0.7366,-0.7366,-0.7366,-0.7319,-0.732,-0.7328,-0.7332,-0.7338,-0.7344,-0.7354,-0.7361,-0.7366,-0.7367,-0.7362,-0.7361,-0.7357,-0.7355,-0.7356,-0.7354,-0.735,0,0]},{"header":{"parameterUnit":"m.s-1","parameterCategory":1,"la1":30.2992,"la2":30.254,"lo1":-89.0895,"lo2":-89.0443,"dy":0.0025,"dx":0.0025,"nx":19,"ny":19,"refTime":"2026-03-10T09:00:00:Z","depth":0,"parameterNumber":3,"parameterNumberName":"V-component_of_WINDS"},"data":[0,0,0,3.4957,3.4959,3.5054,3.5055,3.5175,3.5176,0,0,0,0,0,0,0,0,0,0,0,3.4925,3.4925,3.4957,3.4959,3.5054,3.5055,3.5174,3.5176,0,0,0,0,0,0,0,0,0,0,0,3.4924,3.4925,3.4926,3.4959,3.5054,3.5055,3.5174,3.5103,0,0,0,0,0,0,0,0,0,0,3.5011,3.4977,3.4925,3.4926,3.496,3.5054,3.5055,3.51,3.5108,3.513,0,3.5146,0,3.5163,3.5183,3.5184,0,0,0,3.4962,3.4971,3.5,3.4926,3.4961,3.5054,3.5012,3.5104,3.5113,3.514,3.5148,3.5153,3.5165,3.5184,3.5185,3.5298,3.5299,0,0,3.4957,3.494,3.4994,3.5005,3.4988,3.5009,3.5015,3.511,3.5118,3.5148,3.5156,3.5167,3.5185,3.5186,3.5298,3.5298,0,0,0,3.494,3.4936,3.4963,3.5,3.5018,3.5012,3.5019,3.5114,3.5124,3.5157,3.5168,3.5186,3.5187,3.5297,3.5298,3.5302,0,0,0,3.4936,3.4926,3.4961,3.4951,3.5016,3.5066,3.502,3.5117,3.5129,3.5168,3.5186,3.5188,3.5297,3.5298,3.5301,3.5306,0,0,0,3.492,3.4924,3.4937,3.495,3.4991,3.5065,3.5081,3.512,3.5135,3.5184,3.5188,3.5297,3.5298,3.53,3.5305,3.5333,0,0,0,3.4898,3.4937,3.4936,3.4986,3.499,3.5066,3.508,3.5138,3.518,3.5186,3.5297,3.5298,3.5299,3.5304,3.5332,3.5355,3.5362,0,0,3.4938,3.4941,3.4972,3.4974,3.5046,3.5052,3.5126,3.518,3.5201,3.5265,3.5268,3.5301,3.5305,3.5333,3.5407,3.5413,0,0,0,3.4979,3.5001,3.5024,3.5063,3.5105,3.5143,3.5188,3.5209,3.5265,3.5229,3.5318,3.5321,3.5339,3.5351,3.5356,3.5373,3.5302,3.5302,3.5302,3.5013,3.5038,3.5091,3.5128,3.5166,3.5213,3.5247,3.5284,3.5296,3.5317,3.5337,3.5379,3.5392,3.5396,3.5414,3.535,3.535,3.535,3.535,3.5077,3.5113,3.5131,3.5189,3.5216,3.5266,3.5315,3.5323,3.5375,3.5365,3.5382,3.537,3.5401,3.5419,3.535,3.535,3.535,3.535,3.535,3.5103,3.5125,3.515,3.5211,3.5257,3.5293,3.5344,3.5366,3.5387,3.5404,3.5429,3.5429,3.5434,3.5414,3.5414,3.5414,3.5414,3.5414,3.5414,3.5121,3.5149,3.5187,3.5238,3.5268,3.5311,3.5362,3.5393,3.5433,3.5446,3.5446,3.5459,3.5399,3.5384,3.5417,3.5416,3.5416,3.5416,3.5416,3.5179,3.517,3.523,3.526,3.5324,3.537,3.5398,3.546,3.549,3.5515,3.5525,3.5476,3.5481,3.5477,3.5465,3.5517,3.5517,3.5517,3.5517,3.5202,3.5207,3.5275,3.5323,3.5372,3.5405,3.5476,3.5518,3.556,3.5581,3.5576,3.5562,3.5557,3.5566,3.556,3.555,3.5622,3.5622,3.5622,3.524,3.5252,3.5306,3.5346,3.5399,3.5445,3.5514,3.5571,3.5616,3.5627,3.5598,3.5594,3.5571,3.5562,3.5572,3.5562,3.5544,0,0]}]]